Observations for Trim Market St
| Time | AQI | Temp °C | Hum % | Pres Pa | CO μg/m³ | H₂S μg/m³ | NO μg/m³ | NO₂ μg/m³ | O₃ μg/m³ | SO₂ μg/m³ | PM1 μg/m³ | PM2.5 μg/m³ | PM10 μg/m³ |
|---|---|---|---|---|---|---|---|---|---|---|---|---|---|
| Wednesday 26 August 2026 | |||||||||||||
| 10:41 | 2 | 18.7 | 82 | 2,147,483,647 | 0.27 | 0 | 1.12 | 12.08 | 35.15 | 0 | 6.41 | 7.05 | 12.53 |
| 10:40 | 2 | 18.7 | 82 | 2,147,483,647 | 0.27 | 0 | 1.22 | 12.5 | 37.34 | 0 | 8.55 | 8.59 | 12.53 |
| 10:39 | 2 | 18.7 | 82 | 2,147,483,647 | 0.34 | 0 | 1.04 | 14.07 | 34.49 | 0 | 8.55 | 9.52 | 14.75 |
| 10:38 | 2 | 18.7 | 82 | 2,147,483,647 | 0.27 | 0 | 1.02 | 14.94 | 31.21 | 0 | 7.84 | 9.51 | 13.63 |
| 10:37 | 2 | 18.7 | 82 | 2,147,483,647 | 0.29 | 0 | 0.9 | 17.8 | 32.9 | 0 | 7.84 | 8.1 | 11.96 |
| 10:36 | 2 | 18.7 | 82 | 2,147,483,647 | 0.27 | 0 | 0.92 | 12.43 | 37.67 | 0 | 7.84 | 8.62 | 11.96 |
| 10:35 | 2 | 18.6 | 82 | 2,147,483,647 | 0.28 | 0 | 0.8 | 17.19 | 32.86 | 0 | 4.99 | 8.09 | 13.06 |
| 10:34 | 2 | 18.6 | 82 | 2,147,483,647 | 0.3 | 0 | 1.16 | 13.74 | 37.27 | 0 | 6.41 | 7.62 | 13.06 |
| 10:33 | 2 | 18.6 | 83 | 2,147,483,647 | 0.29 | 0 | 1 | 14.88 | 33.83 | 0 | 6.41 | 8.08 | 11.95 |
| 10:32 | 2 | 18.6 | 83 | 2,147,483,647 | 0.34 | 0 | 1.02 | 15.51 | 35.86 | 0 | 6.41 | 7.14 | 10.84 |
| 10:31 | 2 | 18.6 | 83 | 2,147,483,647 | 0.37 | 0 | 0.98 | 27.31 | 30.82 | 0 | 7.13 | 8.08 | 12.5 |
| 10:30 | 2 | 18.6 | 83 | 2,147,483,647 | 0.54 | 0 | 1.02 | 31.4 | 28.06 | 0 | 7.84 | 8.07 | 13.05 |
| 10:29 | 2 | 18.6 | 83 | 2,147,483,647 | 0.29 | 0 | 0.9 | 16.46 | 47.92 | 0 | 7.84 | 11.35 | 15.8 |
| 10:25 | 2 | 18.5 | 83 | 2,147,483,647 | 0.29 | 0 | 0.96 | 14.8 | 37.2 | 0 | 8.55 | 10.87 | 16.34 |
| 10:23 | 2 | 18.4 | 83 | 2,147,483,647 | 0.3 | 0 | 1.01 | 16.2 | 33.76 | 0 | 7.13 | 9 | 13.04 |
| 10:22 | 2 | 18.4 | 83 | 2,147,483,647 | 0.32 | 0 | 1.19 | 18.8 | 35.82 | 0 | 7.84 | 9 | 13.04 |
| 10:19 | 2 | 18.4 | 83 | 2,147,483,647 | 0.3 | 0 | 1.44 | 20.04 | 32.73 | 0 | 8.55 | 9.93 | 15.23 |
| 10:11 | 2 | 18.2 | 83 | 2,147,483,647 | 0.37 | 0 | 1.37 | 29.49 | 29.85 | 0 | 8.55 | 10.39 | 15.23 |
| 10:10 | 2 | 18.2 | 83 | 2,147,483,647 | 0.45 | 0 | 1.36 | 34.32 | 27.3 | 0 | 9.26 | 10.38 | 14.67 |
| 10:09 | 2 | 18.2 | 83 | 2,147,483,647 | 0.5 | 0 | 1.62 | 24.53 | 31.26 | 0 | 10.69 | 11.32 | 16.87 |